Погода в Макушино

Россия / Курганская область     55°12′18″N   67°14′54″E
темп.,
°C
ветер,
м/с
пор.,
м/с
влажн.,
%
обл.,
%
осадки,
мм/ч
давл.,
гПа
погр.,
м
8 августа, пн
пн823:00+17ссв347548 0.0 101644
02:00+18с3769100 0.0 1016150
05:00+18с3660100 0.0 1016141
08:00+20ссв4762100 0.0 1017321
11:00+23св4549100 0.0 10171135
14:00+24ссв6744100 0.0 10161886
17:00+23ссв6749100 0.0 10161783
20:00+18св486726 0.0 1017153
9 августа, вт
вт923:00+16ссв33748 0.0 101738
02:00+15ссв33805 0.0 101739
05:00+14св33877 0.0 101726
08:00+19св35616 0.0 1017326
11:00+23св564691 0.0 10171402
14:00+25св57405 0.0 10161845
17:00+24св5747100 0.0 10161842
20:00+20всв23678 0.0 101622
10 августа, ср
ср1023:00+17с3381100 0.4 101623
02:00+16с1192100 1.3 101616
05:00+16ссз359499 1.3 1015110
08:00+19ссв468327 0.0 1016315
11:00+24св455742 0.0 1016995
14:00+27ссв574851 0.0 10152101
17:00+25ссв585979 0.0 1015430
20:00+23с37684 0.2 1016164
11 августа, чт
чт1123:00+19св3484100 0.8 101666
02:00+17св4791100 0.1 1017127
05:00+16св37944 0.1 1017128
08:00+20св45735 0.0 1018330
11:00+24ссв45535 0.0 10181038
14:00+25ссв45445 0.0 10181342
17:00+25ссв33420 0.0 10171173
20:00+20всв22530 0.0 101711
12 августа, пт
пт1223:00+18юв33570 0.0 101731
02:00+17ю34580 0.0 101662
05:00+17ю4856100 0.0 1015162
08:00+20ю5105616 0.0 1015317
11:00+26ююз784997 0.0 1013921
14:00+29юз7104412 0.0 10111950
17:00+26зсз8105526 0.3 1008957
20:00+20сз6107324 0.2 1010482